STARLINK-5431, 54792

Orbit data source: Space-Track

STARLINK-5431, 54792 is a payload satellite owned by SpaceX/Seattle (US) in LEO that was launched on Sat, 17 Dec 2022 UTC via an FALCON 9 launch vehicle from the Air Force Eastern Test Range (AFETR). Payload-class satellites include a variety of spacecraft equipped with specific instruments for various scientific and technological missions. These include communications satellites like Starlink; space stations such as the ISS; scientific satellites like the Hubble; Earth observation satellites from companies like Planet Labs, Umbra, and HawkEye 360; GPS; miniature CubeSats for education and research; and military/defense satellites.

Loading next visibility...
Identifier
54792, 2022-175AL
Orbit
LEO
Last TLE update
10 hours ago
Origin
Manufacturer
SpaceX/Seattle
Mission
Operational Commercial Communications
Bus & Motor
STARLINK, Unknown motor
Mass
305 kg wet, ~290 kg dry
Launch date (UTC)
2022-12-17 (2 years ago)
Launch vehicle
FALCON 9
Launch site
Air Force Eastern Test Range (AFETR)
Object type
Payload
Rocket body
Debris
Shape & HBR
Box + 1 Pan, 8.86 m
Radar Cross Section
13.562 m², Large (>1 m²)

Expand to show TLE details & history

TLE from 10 hours ago
0 STARLINK-5431
1 54792U 22175AL  25130.83698410 -.00001699  00000-0 -88706-4 0  9994
2 54792  53.2182 323.3171 0001621 107.9471 252.1698 15.08821936134205
Epoch: 2025-05-10T20:05Z
Definitive object data (Epoch: 2025-05-10T20:05:15.426Z)
Latitude
-0.00001°
Longitude
153.12977°
Altitude
541.04 km
Speed
7.593 km/s
True Right ascension
21h 33m 16s
True Declination
0° 00' 00"
Sunlit
Object was in daylight at TLE epoch
Visualization TLE readout
Latitude
35.9628°
Longitude
-176.04751°
Altitude
542.052 km
Speed
7.596 km/s
Apparent Right ascension
00h 46m 20s
Apparent Declination
0° 09' 34"
Sunlit
Object is in daylight
Visualization observer readout
Local Sidereal Time
14:06:37
Azimuth
29.743° NE
Elevation
-46.236°
Doppler factor
1
Orbital elements
Apogee altitude
541.165 km
Perigee altitude
538.922 km
Semi-major axis
6,918.18 km
Eccentricity
0.0001621
Inclination
53.2182°
RAAN
323.3171°
Arg. of periapsis
107.9471°
True anomaly
252.15212°
Mean anomaly
252.1698°
Eccentric anomaly
252.16096°
Mean motion
3.77186 °/min
BSTAR
-0.000088706
Orbital period
95.44 mins
Loading maneuver chart data...
Loading SW <> Apogee altitude chart data...
Loading historical data...
Loading historical data...
Loading historical data...
Loading historical data...
Loading historical data...
Loading historical data...
Loading historical data...

STARLINK-5431 Visibility forecast

Observer location: undefined°, undefined°

Span
Click to sort rows by Start time (UTC) header in descending order
Start Az.
Max El. time (UTC)
Max El. Az.
Max El.
End time (UTC)
End Az.
7 mins2025-05-11 15:20:00.015Z220.714° SW2025-05-11 15:24:00.015Z86.654° E41.738°2025-05-11 15:27:00.015Z54.306° ENE
5 mins2025-05-11 17:01:00.015Z293.188° NW2025-05-11 17:03:00.015Z330.941° NNW21.38°2025-05-11 17:06:00.015Z25.228° NE
4 mins2025-05-11 20:23:00.015Z352.51° N2025-05-11 20:24:00.015Z10.199° NNE16.912°2025-05-11 20:27:00.015Z60.287° ENE
6 mins2025-05-11 22:02:00.015Z319.419° NNW2025-05-11 22:04:00.015Z359.769° N41.474°2025-05-11 22:08:00.015Z120.709° SE
|